| time (UTC) | temp F | wind direction | speed knots | gust knots | rain 1hr in | rain 24hr in | rain mn in | humidity % | barometer mb |
| 20260906083023 | 81 | 274 | 0.0 | 6.1 | 0.00 | 0.00 | 0.00 | 33 | |
| 20260906082625 | 81 | 324 | 5.2 | 6.1 | 0.00 | 0.00 | 0.00 | 34 | |
| 20260906082423 | 81 | 319 | 4.3 | 5.2 | 0.00 | 0.00 | 0.00 | 34 | |
| 20260906081823 | 81 | 302 | 0.0 | 6.1 | 0.00 | 0.00 | 0.00 | 34 | |
| 20260906081223 | 81 | 320 | 0.0 | 1.7 | 0.00 | 0.00 | 0.00 | 33 | |
| 20260906080623 | 80 | 323 | 3.5 | 7.0 | 0.00 | 0.00 | 0.00 | 33 | |
| 20260906080023 | 80 | 337 | 0.0 | 0.0 | 0.00 | 0.00 | 0.00 | 33 | |
| 20260906075423 | 80 | 39 | 3.5 | 7.8 | 0.00 | 0.00 | 0.00 | 34 | |
| 20260906074823 | 80 | 15 | 0.0 | 0.0 | 0.00 | 0.00 | 0.00 | 34 | |
| 20260906074625 | 80 | 15 | 0.0 | 6.1 | 0.00 | 0.00 | 0.00 | 34 | |
| 20260906074223 | 80 | 15 | 3.5 | 6.1 | 0.00 | 0.00 | 0.00 | 33 | |
| 20260906073623 | 79 | 168 | 0.0 | 6.1 | 0.00 | 0.00 | 0.00 | 35 | |
| 20260906073023 | 79 | 333 | 0.0 | 4.3 | 0.00 | 0.00 | 0.00 | 35 | |
| 20260906072625 | 79 | 254 | 0.0 | 4.3 | 0.00 | 0.00 | 0.00 | 35 | |
| 20260906072424 | 78 | 254 | 0.0 | 4.3 | 0.00 | 0.00 | 0.00 | 36 | |
| 20260906071823 | 78 | 310 | 0.0 | 4.3 | 0.00 | 0.00 | 0.00 | 36 | |
| 20260906071224 | 77 | 260 | 0.0 | 4.3 | 0.00 | 0.00 | 0.00 | 37 | |
| 20260906070624 | 77 | 320 | 0.0 | 0.0 | 0.00 | 0.00 | 0.00 | 39 | |
| 20260906070023 | 76 | 320 | 0.0 | 0.0 | 0.00 | 0.00 | 0.00 | 39 | |
| 20260906065424 | 76 | 320 | 0.0 | 2.6 | 0.00 | 0.00 | 0.00 | 40 | |
| 20260906064824 | 75 | 260 | 0.0 | 0.0 | 0.00 | 0.00 | 0.00 | 40 | |
| 20260906064625 | 75 | 260 | 0.0 | 0.0 | 0.00 | 0.00 | 0.00 | 42 | |
| 20260906064224 | 75 | 260 | 0.0 | 4.3 | 0.00 | 0.00 | 0.00 | 41 | |
| 20260906063624 | 74 | 302 | 0.0 | 0.0 | 0.00 | 0.00 | 0.00 | 42 | |
| 20260906063024 | 73 | 302 | 0.0 | 0.0 | 0.00 | 0.00 | 0.00 | 44 | |
| 20260906062625 | 72 | 302 | 0.0 | 0.0 | 0.00 | 0.00 | 0.00 | 45 | |
| 20260906062424 | 72 | 302 | 0.0 | 0.0 | 0.00 | 0.00 | 0.00 | 47 | |
| 20260906061824 | 72 | 302 | 0.0 | 0.0 | 0.00 | 0.00 | 0.00 | 47 | |
| 20260906061224 | 71 | 302 | 0.0 | 0.0 | 0.00 | 0.00 | 0.00 | 48 | |
| 20260906060624 | 71 | 302 | 0.0 | 0.0 | 0.00 | 0.00 | 0.00 | 49 | |
| 20260906060024 | 70 | 302 | 0.0 | 0.0 | 0.00 | 0.00 | 0.00 | 49 | |
| 20260906055424 | 70 | 302 | 0.0 | 0.0 | 0.00 | 0.00 | 0.00 | 50 | |
| 20260906054824 | 70 | 302 | 0.0 | 0.0 | 0.00 | 0.00 | 0.00 | 50 | |
| 20260906054625 | 70 | 302 | 0.0 | 0.0 | 0.00 | 0.00 | 0.00 | 50 | |
| 20260906054224 | 70 | 302 | 0.0 | 0.0 | 0.00 | 0.00 | 0.00 | 50 | |
| 20260906053624 | 70 | 302 | 0.0 | 0.0 | 0.00 | 0.00 | 0.00 | 50 | |
| 20260906053024 | 70 | 302 | 0.0 | 0.0 | 0.00 | 0.00 | 0.00 | 50 | |
| 20260906052625 | 70 | 302 | 0.0 | 0.0 | 0.00 | 0.00 | 0.00 | 50 | |
| 20260906052424 | 70 | 302 | 0.0 | 0.0 | 0.00 | 0.00 | 0.00 | 50 | |
| 20260906051824 | 70 | 302 | 0.0 | 0.0 | 0.00 | 0.00 | 0.00 | 50 | |
| 20260906051224 | 70 | 302 | 0.0 | 0.0 | 0.00 | 0.00 | 0.00 | 50 | |
| 20260906050624 | 70 | 302 | 0.0 | 0.0 | 0.00 | 0.00 | 0.00 | 50 | |
| 20260906050024 | 69 | 302 | 0.0 | 0.0 | 0.00 | 0.00 | 0.00 | 50 | |
| 20260906045424 | 69 | 302 | 0.0 | 0.0 | 0.00 | 0.00 | 0.00 | 50 | |
| 20260906044824 | 69 | 302 | 0.0 | 0.0 | 0.00 | 0.00 | 0.00 | 49 | |
| 20260906044625 | 69 | 302 | 0.0 | 0.0 | 0.00 | 0.00 | 0.00 | 49 | |
| 20260906044224 | 69 | 302 | 0.0 | 0.0 | 0.00 | 0.00 | 0.00 | 49 | |
| 20260906043624 | 69 | 302 | 0.0 | 0.0 | 0.00 | 0.00 | 0.00 | 49 | |
| 20260906043024 | 69 | 302 | 0.0 | 0.0 | 0.00 | 0.00 | 0.00 | 49 | |
| 20260906042625 | 69 | 302 | 0.0 | 0.0 | 0.00 | 0.00 | 0.00 | 49 | |
| 20260906042424 | 69 | 302 | 0.0 | 0.0 | 0.00 | 0.00 | 0.00 | 49 | |
| 20260906041824 | 69 | 302 | 0.0 | 0.0 | 0.00 | 0.00 | 0.00 | 49 | |
| 20260906041224 | 69 | 302 | 0.0 | 0.0 | 0.00 | 0.00 | 0.00 | 48 | |
| 20260906040624 | 69 | 302 | 0.0 | 0.0 | 0.00 | 0.00 | 0.00 | 48 | |
| 20260906040024 | 69 | 302 | 0.0 | 0.0 | 0.00 | 0.00 | 0.00 | 48 | |
| 20260906035424 | 69 | 302 | 0.0 | 0.0 | 0.00 | 0.00 | 0.00 | 48 | |
| 20260906034824 | 69 | 302 | 0.0 | 0.0 | 0.00 | 0.00 | 0.00 | 48 | |
| 20260906034625 | 69 | 302 | 0.0 | 0.0 | 0.00 | 0.00 | 0.00 | 48 | |
| 20260906034224 | 69 | 302 | 0.0 | 0.0 | 0.00 | 0.00 | 0.00 | 48 | |
| 20260906033624 | 69 | 302 | 0.0 | 0.0 | 0.00 | 0.00 | 0.00 | 48 | |
| 20260906033024 | 69 | 302 | 0.0 | 0.0 | 0.00 | 0.00 | 0.00 | 48 | |
| 20260906032625 | 69 | 302 | 0.0 | 0.0 | 0.00 | 0.00 | 0.00 | 48 | |
| 20260906032424 | 69 | 302 | 0.0 | 0.0 | 0.00 | 0.00 | 0.00 | 48 | |
| 20260906031824 | 69 | 302 | 0.0 | 0.0 | 0.00 | 0.00 | 0.00 | 48 | |
| 20260906031224 | 69 | 302 | 0.0 | 0.0 | 0.00 | 0.00 | 0.00 | 48 | |
| 20260906030624 | 69 | 302 | 0.0 | 0.0 | 0.00 | 0.00 | 0.00 | 48 | |
| 20260906030024 | 69 | 302 | 0.0 | 0.0 | 0.00 | 0.00 | 0.00 | 49 | |
| 20260906025424 | 69 | 302 | 0.0 | 0.0 | 0.00 | 0.00 | 0.00 | 49 | |
| 20260906024824 | 69 | 302 | 0.0 | 0.0 | 0.00 | 0.00 | 0.00 | 49 | |
| 20260906024625 | 69 | 302 | 0.0 | 0.0 | 0.00 | 0.00 | 0.00 | 49 | |
| 20260906024224 | 69 | 302 | 0.0 | 0.0 | 0.00 | 0.00 | 0.00 | 49 | |
| 20260906023624 | 69 | 302 | 0.0 | 0.0 | 0.00 | 0.00 | 0.00 | 48 | |
| 20260906023024 | 69 | 302 | 0.0 | 0.0 | 0.00 | 0.00 | 0.00 | 48 | |
| 20260906022625 | 69 | 302 | 0.0 | 0.0 | 0.00 | 0.00 | 0.00 | 48 | |
| 20260906022424 | 69 | 302 | 0.0 | 0.0 | 0.00 | 0.00 | 0.00 | 48 | |
| 20260906021824 | 69 | 302 | 0.0 | 0.0 | 0.00 | 0.00 | 0.00 | 48 | |
| 20260906021224 | 69 | 302 | 0.0 | 0.0 | 0.00 | 0.00 | 0.00 | 49 | |
| 20260906020624 | 69 | 302 | 0.0 | 0.0 | 0.00 | 0.00 | 0.00 | 49 | |
| 20260906020024 | 70 | 302 | 0.0 | 0.0 | 0.00 | 0.00 | 0.00 | 48 | |
| 20260906015424 | 69 | 302 | 0.0 | 0.0 | 0.00 | 0.00 | 0.00 | 48 | |
| 20260906014824 | 70 | 302 | 0.0 | 0.0 | 0.00 | 0.00 | 0.00 | 48 | |
| 20260906014224 | 70 | 302 | 0.0 | 0.0 | 0.00 | 0.00 | 0.00 | 48 | |
| 20260906013624 | 70 | 302 | 0.0 | 0.0 | 0.00 | 0.00 | 0.00 | 48 | |
| 20260906013024 | 70 | 302 | 0.0 | 0.0 | 0.00 | 0.00 | 0.00 | 48 | |
| 20260906012424 | 70 | 302 | 0.0 | 0.0 | 0.00 | 0.00 | 0.00 | 48 | |
| 20260906011824 | 70 | 302 | 0.0 | 0.0 | 0.00 | 0.00 | 0.00 | 49 | |
| 20260906011224 | 70 | 302 | 0.0 | 0.0 | 0.00 | 0.00 | 0.00 | 49 | |
| 20260906010624 | 70 | 302 | 0.0 | 0.0 | 0.00 | 0.00 | 0.00 | 49 | |
| 20260906010024 | 70 | 302 | 0.0 | 0.0 | 0.00 | 0.00 | 0.00 | 49 | |
| 20260906005424 | 70 | 302 | 0.0 | 0.0 | 0.00 | 0.00 | 0.00 | 50 | |
| 20260906004824 | 70 | 302 | 0.0 | 0.0 | 0.00 | 0.00 | 0.00 | 50 | |
| 20260906004625 | 70 | 302 | 0.0 | 0.0 | 0.00 | 0.00 | 0.00 | 50 | |
| 20260906004224 | 70 | 302 | 0.0 | 0.0 | 0.00 | 0.00 | 0.00 | 50 | |
| 20260906003624 | 70 | 302 | 0.0 | 0.0 | 0.00 | 0.00 | 0.00 | 50 | |
| 20260906003024 | 70 | 302 | 0.0 | 0.0 | 0.00 | 0.00 | 0.00 | 50 | |
| 20260906002625 | 70 | 302 | 0.0 | 0.0 | 0.00 | 0.00 | 0.00 | 50 | |
| 20260906002424 | 70 | 302 | 0.0 | 0.0 | 0.00 | 0.00 | 0.00 | 50 | |
| 20260906001824 | 70 | 302 | 0.0 | 0.0 | 0.00 | 0.00 | 0.00 | 50 | |
| 20260906001224 | 70 | 302 | 0.0 | 0.0 | 0.00 | 0.00 | 0.00 | 50 | |
| 20260906000624 | 70 | 302 | 0.0 | 0.0 | 0.00 | 0.00 | 0.00 | 51 | |
| 20260906000024 | 70 | 302 | 0.0 | 0.0 | 0.00 | 0.00 | 0.00 | 51 | |
| 20260905235424 | 70 | 302 | 0.0 | 0.0 | 0.00 | 0.00 | 0.00 | 51 | |
| 20260905234824 | 70 | 302 | 0.0 | 0.0 | 0.00 | 0.00 | 0.00 | 51 | |
| 20260905234625 | 70 | 302 | 0.0 | 0.0 | 0.00 | 0.00 | 0.00 | 51 | |
| 20260905234224 | 70 | 302 | 0.0 | 0.0 | 0.00 | 0.00 | 0.00 | 52 | |
| 20260905233624 | 70 | 302 | 0.0 | 0.0 | 0.00 | 0.00 | 0.00 | 51 | |
| 20260905233024 | 70 | 302 | 0.0 | 0.0 | 0.00 | 0.00 | 0.00 | 52 | |
| 20260905232625 | 70 | 302 | 0.0 | 0.0 | 0.00 | 0.00 | 0.00 | 52 | |
| 20260905232424 | 70 | 302 | 0.0 | 0.0 | 0.00 | 0.00 | 0.00 | 52 | |
| 20260905231824 | 70 | 302 | 0.0 | 0.0 | 0.00 | 0.00 | 0.00 | 52 | |
| 20260905231224 | 70 | 302 | 0.0 | 0.0 | 0.00 | 0.00 | 0.00 | 52 | |
| 20260905230624 | 70 | 302 | 0.0 | 0.0 | 0.00 | 0.00 | 0.00 | 52 | |
| 20260905230024 | 70 | 302 | 0.0 | 0.0 | 0.00 | 0.00 | 0.00 | 52 | |
| 20260905225424 | 70 | 302 | 0.0 | 0.0 | 0.00 | 0.00 | 0.00 | 52 | |
| 20260905224824 | 70 | 302 | 0.0 | 0.0 | 0.00 | 0.00 | 0.00 | 52 | |
| 20260905224626 | 70 | 302 | 0.0 | 0.0 | 0.00 | 0.00 | 0.00 | 52 | |
| 20260905224224 | 70 | 302 | 0.0 | 0.0 | 0.00 | 0.00 | 0.00 | 52 | |
| 20260905223624 | 70 | 302 | 0.0 | 0.0 | 0.00 | 0.00 | 0.00 | 53 | |
| 20260905223024 | 71 | 302 | 0.0 | 0.0 | 0.00 | 0.00 | 0.00 | 53 | |
| 20260905222626 | 71 | 302 | 0.0 | 0.0 | 0.00 | 0.00 | 0.00 | 52 | |
| 20260905222424 | 71 | 302 | 0.0 | 0.0 | 0.00 | 0.00 | 0.00 | 52 | |
| 20260905221824 | 71 | 302 | 0.0 | 0.0 | 0.00 | 0.00 | 0.00 | 52 | |
| 20260905221224 | 71 | 302 | 0.0 | 0.0 | 0.00 | 0.00 | 0.00 | 52 | |
| 20260905220624 | 71 | 302 | 0.0 | 0.0 | 0.00 | 0.00 | 0.00 | 52 | |
| 20260905220024 | 71 | 302 | 0.0 | 0.0 | 0.00 | 0.00 | 0.00 | 52 | |
| 20260905215424 | 71 | 302 | 0.0 | 0.0 | 0.00 | 0.00 | 0.00 | 52 | |
| 20260905214824 | 71 | 302 | 0.0 | 0.0 | 0.00 | 0.00 | 0.00 | 52 | |
| 20260905214626 | 71 | 302 | 0.0 | 0.0 | 0.00 | 0.00 | 0.00 | 52 | |
| 20260905214224 | 71 | 302 | 0.0 | 0.0 | 0.00 | 0.00 | 0.00 | 51 | |
| 20260905213624 | 71 | 302 | 0.0 | 0.0 | 0.00 | 0.00 | 0.00 | 51 | |
| 20260905213024 | 71 | 302 | 0.0 | 0.0 | 0.00 | 0.00 | 0.00 | 51 | |
| 20260905212626 | 72 | 302 | 0.0 | 0.0 | 0.00 | 0.00 | 0.00 | 51 | |
| 20260905212424 | 72 | 302 | 0.0 | 0.0 | 0.00 | 0.00 | 0.00 | 51 | |
| 20260905211824 | 72 | 302 | 0.0 | 0.0 | 0.00 | 0.00 | 0.00 | 51 | |
| 20260905211224 | 72 | 302 | 0.0 | 0.0 | 0.00 | 0.00 | 0.00 | 51 | |
| 20260905210624 | 72 | 302 | 0.0 | 0.0 | 0.00 | 0.00 | 0.00 | 50 | |
| 20260905210025 | 72 | 302 | 0.0 | 0.0 | 0.00 | 0.00 | 0.00 | 50 | |
| 20260905205425 | 72 | 302 | 0.0 | 0.0 | 0.00 | 0.00 | 0.00 | 50 | |
| 20260905204824 | 72 | 302 | 0.0 | 0.0 | 0.00 | 0.00 | 0.00 | 50 | |
| 20260905204224 | 72 | 302 | 0.0 | 0.0 | 0.00 | 0.00 | 0.00 | 49 | |
| 20260905203624 | 72 | 302 | 0.0 | 0.0 | 0.00 | 0.00 | 0.00 | 49 | |
| 20260905203025 | 73 | 302 | 0.0 | 0.0 | 0.00 | 0.00 | 0.00 | 49 | |
| 20260905202626 | 73 | 302 | 0.0 | 0.0 | 0.00 | 0.00 | 0.00 | 49 | |
| 20260905202425 | 73 | 302 | 0.0 | 0.0 | 0.00 | 0.00 | 0.00 | 49 | |
| 20260905201825 | 73 | 302 | 0.0 | 0.0 | 0.00 | 0.00 | 0.00 | 49 | |
| 20260905201225 | 73 | 302 | 0.0 | 0.0 | 0.00 | 0.00 | 0.00 | 49 | |
| 20260905200625 | 73 | 302 | 0.0 | 0.0 | 0.00 | 0.00 | 0.00 | 48 | |
| 20260905200025 | 73 | 302 | 0.0 | 0.0 | 0.00 | 0.00 | 0.00 | 48 | |
| 20260905195425 | 73 | 302 | 0.0 | 0.0 | 0.00 | 0.00 | 0.00 | 48 | |
| 20260905194825 | 74 | 302 | 0.0 | 0.0 | 0.00 | 0.00 | 0.00 | 48 | |
| 20260905194626 | 74 | 302 | 0.0 | 0.0 | 0.00 | 0.00 | 0.00 | 48 | |
| 20260905194225 | 74 | 302 | 0.0 | 0.0 | 0.00 | 0.00 | 0.00 | 48 | |
| 20260905193625 | 74 | 302 | 0.0 | 0.0 | 0.00 | 0.00 | 0.00 | 48 | |
| 20260905193025 | 74 | 302 | 0.0 | 0.0 | 0.00 | 0.00 | 0.00 | 48 | |
| 20260905192425 | 74 | 302 | 0.0 | 0.0 | 0.00 | 0.00 | 0.00 | 48 | |
| 20260905191825 | 74 | 302 | 0.0 | 0.0 | 0.00 | 0.00 | 0.00 | 47 | |
| 20260905191225 | 74 | 302 | 0.0 | 0.0 | 0.00 | 0.00 | 0.00 | 48 | |
| 20260905190625 | 74 | 302 | 0.0 | 0.0 | 0.00 | 0.00 | 0.00 | 48 | |
| 20260905190025 | 74 | 302 | 0.0 | 0.0 | 0.00 | 0.00 | 0.00 | 48 | |
| 20260905185425 | 74 | 302 | 0.0 | 0.0 | 0.00 | 0.00 | 0.00 | 48 | |
| 20260905184825 | 74 | 302 | 0.0 | 0.0 | 0.00 | 0.00 | 0.00 | 48 | |
| 20260905184626 | 74 | 302 | 0.0 | 0.0 | 0.00 | 0.00 | 0.00 | 48 | |
| 20260905184225 | 74 | 302 | 0.0 | 0.0 | 0.00 | 0.00 | 0.00 | 48 | |
| 20260905183625 | 75 | 302 | 0.0 | 0.0 | 0.00 | 0.00 | 0.00 | 47 | |
| 20260905183025 | 75 | 302 | 0.0 | 0.0 | 0.00 | 0.00 | 0.00 | 47 | |
| 20260905182626 | 75 | 302 | 0.0 | 0.0 | 0.00 | 0.00 | 0.00 | 46 | |
| 20260905182425 | 75 | 302 | 0.0 | 0.0 | 0.00 | 0.00 | 0.00 | 46 | |
| 20260905181825 | 75 | 302 | 0.0 | 0.0 | 0.00 | 0.00 | 0.00 | 46 | |
| 20260905181225 | 75 | 302 | 0.0 | 0.0 | 0.00 | 0.00 | 0.00 | 45 | |
| 20260905180625 | 76 | 302 | 0.0 | 0.0 | 0.00 | 0.00 | 0.00 | 45 | |
| 20260905180025 | 76 | 302 | 0.0 | 0.0 | 0.00 | 0.00 | 0.00 | 44 | |
| 20260905175425 | 76 | 302 | 0.0 | 0.0 | 0.00 | 0.00 | 0.00 | 44 | |
| 20260905174825 | 76 | 302 | 0.0 | 0.0 | 0.00 | 0.00 | 0.00 | 43 | |
| 20260905174626 | 76 | 302 | 0.0 | 0.0 | 0.00 | 0.00 | 0.00 | 43 | |
| 20260905174225 | 77 | 302 | 0.0 | 0.0 | 0.00 | 0.00 | 0.00 | 43 | |
| 20260905173625 | 77 | 302 | 0.0 | 0.0 | 0.00 | 0.00 | 0.00 | 43 | |
| 20260905173025 | 77 | 302 | 0.0 | 0.0 | 0.00 | 0.00 | 0.00 | 42 | |
| 20260905172626 | 77 | 302 | 0.0 | 0.0 | 0.00 | 0.00 | 0.00 | 42 | |
| 20260905172425 | 78 | 302 | 0.0 | 0.0 | 0.00 | 0.00 | 0.00 | 42 | |
| 20260905171825 | 78 | 302 | 0.0 | 0.0 | 0.00 | 0.00 | 0.00 | 42 | |
| 20260905171225 | 78 | 302 | 0.0 | 0.0 | 0.00 | 0.00 | 0.00 | 41 | |
| 20260905170625 | 79 | 302 | 0.0 | 0.0 | 0.00 | 0.00 | 0.00 | 41 | |
| 20260905170025 | 79 | 302 | 0.0 | 0.0 | 0.00 | 0.00 | 0.00 | 40 | |
| 20260905165425 | 80 | 302 | 0.0 | 0.0 | 0.00 | 0.00 | 0.00 | 40 | |
| 20260905164825 | 80 | 302 | 0.0 | 0.0 | 0.00 | 0.00 | 0.00 | 40 | |
| 20260905164225 | 81 | 302 | 0.0 | 0.0 | 0.00 | 0.00 | 0.00 | 39 | |
| 20260905163625 | 82 | 302 | 0.0 | 0.0 | 0.00 | 0.00 | 0.00 | 38 | |
| 20260905163025 | 83 | 302 | 0.0 | 0.0 | 0.00 | 0.00 | 0.00 | 37 | |
| 20260905162425 | 83 | 302 | 0.0 | 0.0 | 0.00 | 0.00 | 0.00 | 36 | |
| 20260905161825 | 84 | 302 | 0.0 | 0.0 | 0.00 | 0.00 | 0.00 | 36 | |
| 20260905161225 | 84 | 302 | 0.0 | 0.0 | 0.00 | 0.00 | 0.00 | 36 | |
| 20260905160625 | 84 | 302 | 0.0 | 0.0 | 0.00 | 0.00 | 0.00 | 35 | |
| 20260905160025 | 84 | 302 | 0.0 | 0.0 | 0.00 | 0.00 | 0.00 | 35 | |
| 20260905155425 | 84 | 302 | 0.0 | 2.6 | 0.00 | 0.00 | 0.00 | 35 | |
| 20260905154825 | 84 | 340 | 0.0 | 1.7 | 0.00 | 0.00 | 0.00 | 34 | |
| 20260905154626 | 84 | 312 | 0.0 | 0.0 | 0.00 | 0.00 | 0.00 | 35 | |
| 20260905154225 | 84 | 312 | 0.0 | 0.0 | 0.00 | 0.00 | 0.00 | 35 | |
| 20260905153625 | 83 | 312 | 0.0 | 0.0 | 0.00 | 0.00 | 0.00 | 35 | |
| 20260905153025 | 83 | 312 | 0.0 | 1.7 | 0.00 | 0.00 | 0.00 | 36 | |
| 20260905152626 | 83 | 295 | 0.0 | 3.5 | 0.00 | 0.00 | 0.00 | 35 | |
| 20260905152425 | 83 | 288 | 0.0 | 3.5 | 0.00 | 0.00 | 0.00 | 35 | |
| 20260905151825 | 84 | 277 | 0.0 | 3.5 | 0.00 | 0.00 | 0.00 | 34 | |
| 20260905151225 | 84 | 264 | 0.0 | 0.9 | 0.00 | 0.00 | 0.00 | 33 | |
| 20260905150625 | 85 | 0 | 0.0 | 3.5 | 0.00 | 0.00 | 0.00 | 32 | |
| 20260905150025 | 85 | 295 | 0.0 | 2.6 | 0.00 | 0.00 | 0.00 | 32 | |
| 20260905145425 | 86 | 220 | 0.0 | 1.7 | 0.00 | 0.00 | 0.00 | 30 | |
| 20260905144825 | 87 | 302 | 5.2 | 5.2 | 0.00 | 0.00 | 0.00 | 29 | |
| 20260905144626 | 87 | 282 | 3.5 | 3.5 | 0.00 | 0.00 | 0.00 | 30 | |
| 20260905144226 | 87 | 282 | 0.0 | 4.3 | 0.00 | 0.00 | 0.00 | 29 | |
| 20260905143625 | 88 | 19 | 0.0 | 4.3 | 0.00 | 0.00 | 0.00 | 28 | |
| 20260905143025 | 89 | 347 | 0.0 | 5.2 | 0.00 | 0.00 | 0.00 | 27 | |
| 20260905142626 | 90 | 358 | 0.0 | 2.6 | 0.00 | 0.00 | 0.00 | 26 | |
| 20260905142425 | 90 | 358 | 0.0 | 2.6 | 0.00 | 0.00 | 0.00 | 26 | |
| 20260905141825 | 90 | 322 | 0.0 | 5.2 | 0.00 | 0.00 | 0.00 | 25 | |
| 20260905141225 | 89 | 352 | 3.5 | 7.0 | 0.00 | 0.00 | 0.00 | 26 | |
| 20260905140625 | 88 | 309 | 0.0 | 5.2 | 0.00 | 0.00 | 0.00 | 27 | |
| 20260905140025 | 87 | 296 | 0.0 | 5.2 | 0.00 | 0.00 | 0.00 | 28 | |
| 20260905135425 | 86 | 334 | 0.0 | 3.5 | 0.00 | 0.00 | 0.00 | 28 | |
| 20260905134825 | 84 | 4 | 0.0 | 4.3 | 0.00 | 0.00 | 0.00 | 30 | |
| 20260905134626 | 84 | 25 | 0.0 | 0.0 | 0.00 | 0.00 | 0.00 | 31 | |
| 20260905134225 | 83 | 25 | 0.0 | 5.2 | 0.00 | 0.00 | 0.00 | 31 | |
| 20260905133625 | 83 | 174 | 0.0 | 5.2 | 0.00 | 0.00 | 0.00 | 31 | |
| 20260905133025 | 83 | 286 | 1.7 | 5.2 | 0.00 | 0.00 | 0.00 | 32 | |
| 20260905132626 | 83 | 272 | 0.0 | 6.1 | 0.00 | 0.00 | 0.00 | 32 | |
| 20260905132425 | 83 | 358 | 2.6 | 6.1 | 0.00 | 0.00 | 0.00 | 33 | |
| 20260905131825 | 83 | 56 | 0.0 | 3.5 | 0.00 | 0.00 | 0.00 | 33 | |
| 20260905131225 | 83 | 284 | 0.0 | 7.0 | 0.00 | 0.00 | 0.00 | 32 | |
| 20260905130625 | 83 | 351 | 2.6 | 10.4 | 0.00 | 0.00 | 0.00 | 33 | |
| 20260905130025 | 83 | 348 | 3.5 | 5.2 | 0.00 | 0.00 | 0.00 | 32 | |
| 20260905125425 | 83 | 331 | 3.5 | 7.0 | 0.00 | 0.00 | 0.00 | 33 | |
| 20260905124826 | 83 | 279 | 0.0 | 6.1 | 0.00 | 0.00 | 0.00 | 33 | |
| 20260905124627 | 83 | 330 | 0.0 | 6.1 | 0.00 | 0.00 | 0.00 | 33 | |
| 20260905124225 | 83 | 132 | 0.0 | 6.1 | 0.00 | 0.00 | 0.00 | 32 | |
| 20260905123625 | 83 | 185 | 2.6 | 5.2 | 0.00 | 0.00 | 0.00 | 33 | |
| 20260905123025 | 83 | 355 | 3.5 | 7.8 | 0.00 | 0.00 | 0.00 | 33 | |
| 20260905122626 | 83 | 208 | 2.6 | 7.8 | 0.00 | 0.00 | 0.00 | 32 | |
| 20260905122425 | 83 | 336 | 0.0 | 6.1 | 0.00 | 0.00 | 0.00 | 32 | |
| 20260905121825 | 83 | 322 | 0.0 | 7.0 | 0.00 | 0.00 | 0.00 | 31 | |
| 20260905121225 | 82 | 248 | 0.0 | 7.0 | 0.00 | 0.00 | 0.00 | 33 | |
| 20260905120625 | 82 | 282 | 0.0 | 5.2 | 0.00 | 0.00 | 0.00 | 33 | |
| 20260905120025 | 82 | 330 | 4.3 | 6.1 | 0.00 | 0.00 | 0.00 | 33 | |
| 20260905115425 | 82 | 358 | 0.0 | 3.5 | 0.00 | 0.00 | 0.00 | 34 | |
| 20260905114825 | 82 | 42 | 0.0 | 5.2 | 0.00 | 0.00 | 0.00 | 34 | |
| 20260905114627 | 82 | 278 | 0.0 | 4.3 | 0.00 | 0.00 | 0.00 | 34 | |
| 20260905114225 | 82 | 350 | 0.0 | 4.3 | 0.00 | 0.00 | 0.00 | 34 | |
| 20260905113625 | 82 | 288 | 0.0 | 2.6 | 0.00 | 0.00 | 0.00 | 35 | |
| 20260905113025 | 81 | 324 | 0.0 | 4.3 | 0.00 | 0.00 | 0.00 | 35 | |
| 20260905112627 | 81 | 282 | 0.0 | 3.5 | 0.00 | 0.00 | 0.00 | 35 | |
| 20260905112425 | 81 | 282 | 0.0 | 4.3 | 0.00 | 0.00 | 0.00 | 35 | |
| 20260905111825 | 81 | 347 | 0.0 | 5.2 | 0.00 | 0.00 | 0.00 | 34 | |
| 20260905111225 | 81 | 327 | 4.3 | 4.3 | 0.00 | 0.00 | 0.00 | 35 | |
| 20260905110625 | 81 | 127 | 0.0 | 5.2 | 0.00 | 0.00 | 0.00 | 35 | |
| 20260905110025 | 81 | 102 | 0.0 | 3.5 | 0.00 | 0.00 | 0.00 | 36 | |
| 20260905105425 | 81 | 267 | 0.0 | 0.0 | 0.00 | 0.00 | 0.00 | 35 | |
| 20260905104825 | 80 | 26 | 3.5 | 6.1 | 0.00 | 0.00 | 0.00 | 35 | |
| 20260905104627 | 80 | 68 | 0.0 | 0.0 | 0.00 | 0.00 | 0.00 | 37 | |
| 20260905104225 | 80 | 68 | 0.0 | 2.6 | 0.00 | 0.00 | 0.00 | 37 | |
| 20260905103625 | 80 | 68 | 0.0 | 3.5 | 0.00 | 0.00 | 0.00 | 37 | |
| 20260905103026 | 80 | 36 | 1.7 | 7.8 | 0.00 | 0.00 | 0.00 | 37 | |
| 20260905102627 | 80 | 352 | 0.0 | 8.7 | 0.00 | 0.00 | 0.00 | 38 | |
| 20260905102425 | 80 | 270 | 2.6 | 7.0 | 0.00 | 0.00 | 0.00 | 38 | |
| 20260905101825 | 80 | 164 | 0.0 | 2.6 | 0.00 | 0.00 | 0.00 | 38 | |
| 20260905101226 | 80 | 164 | 0.0 | 3.5 | 0.00 | 0.00 | 0.00 | 38 | |
| 20260905100625 | 80 | 149 | 0.0 | 5.2 | 0.00 | 0.00 | 0.00 | 38 | |
| 20260905100026 | 79 | 33 | 0.0 | 6.1 | 0.00 | 0.00 | 0.00 | 37 | |
| 20260905095426 | 79 | 262 | 2.6 | 5.2 | 0.00 | 0.00 | 0.00 | 38 | |
| 20260905094826 | 79 | 30 | 0.0 | 4.3 | 0.00 | 0.00 | 0.00 | 38 | |
| 20260905094627 | 79 | 1 | 0.0 | 3.5 | 0.00 | 0.00 | 0.00 | 38 | |
| 20260905094226 | 79 | 66 | 0.0 | 6.1 | 0.00 | 0.00 | 0.00 | 38 | |
| 20260905093626 | 78 | 275 | 0.0 | 3.5 | 0.00 | 0.00 | 0.00 | 38 | |
| 20260905093026 | 78 | 295 | 5.2 | 7.0 | 0.00 | 0.00 | 0.00 | 38 | |
| 20260905092627 | 78 | 296 | 0.0 | 5.2 | 0.00 | 0.00 | 0.00 | 38 | |
| 20260905092426 | 78 | 307 | 4.3 | 5.2 | 0.00 | 0.00 | 0.00 | 37 | |
| 20260905091826 | 78 | 327 | 5.2 | 5.2 | 0.00 | 0.00 | 0.00 | 38 | |
| 20260905091226 | 78 | 354 | 7.0 | 7.0 | 0.00 | 0.00 | 0.00 | 40 | |
| 20260905090626 | 77 | 358 | 0.0 | 7.0 | 0.00 | 0.00 | 0.00 | 39 | |
| 20260905090026 | 77 | 300 | 5.2 | 9.6 | 0.00 | 0.00 | 0.00 | 39 | |
| 20260905085426 | 77 | 358 | 0.0 | 4.3 | 0.00 | 0.00 | 0.00 | 40 | |
| 20260905084826 | 76 | 277 | 0.0 | 6.1 | 0.00 | 0.00 | 0.00 | 40 | |
| 20260905084226 | 76 | 281 | 3.5 | 5.2 | 0.00 | 0.00 | 0.00 | 40 | |
| 20260905083628 | 76 | 336 | 3.5 | 6.1 | 0.00 | 0.00 | 0.00 | 39 |